TimeEDT,TemperatureF,Dew PointF,Humidity,Sea Level PressureIn,VisibilityMPH,Wind Direction,Wind SpeedMPH,Gust SpeedMPH,PrecipitationIn,Events,Conditions,WindDirDegrees,DateUTC
12:56 AM,71.6,62.6,73,29.92,10.0,SSE,10.4,-,N/A,,Scattered Clouds,150,2013-04-19 04:56:00
1:39 AM,69.8,64.4,83,29.88,10.0,SSE,10.4,-,N/A,,Partly Cloudy,160,2013-04-19 05:39:00
1:56 AM,69.8,64.4,83,29.88,10.0,SSE,9.2,-,N/A,,Partly Cloudy,160,2013-04-19 05:56:00
2:58 AM,68.7,64.4,86,29.86,10.0,SSE,8.1,-,N/A,,Clear,150,2013-04-19 06:58:00
3:43 AM,69.8,64.4,83,29.86,10.0,South,5.8,-,N/A,,Mostly Cloudy,170,2013-04-19 07:43:00
3:53 AM,69.8,64.4,83,29.86,10.0,South,4.6,-,N/A,,Mostly Cloudy,170,2013-04-19 07:53:00
3:58 AM,69.1,64.8,86,29.86,10.0,South,4.6,-,N/A,,Overcast,170,2013-04-19 07:58:00
4:58 AM,69.6,66.0,88,29.86,10.0,South,5.8,-,N/A,,Overcast,180,2013-04-19 08:58:00
5:18 AM,69.8,66.2,88,29.85,10.0,South,8.1,-,N/A,,Overcast,180,2013-04-19 09:18:00
5:48 AM,69.8,66.2,88,29.84,10.0,SSE,9.2,-,N/A,,Overcast,160,2013-04-19 09:48:00
5:58 AM,69.8,66.7,90,29.84,10.0,SSE,8.1,-,N/A,,Overcast,150,2013-04-19 09:58:00
6:43 AM,69.8,68.0,94,29.85,10.0,SSE,11.5,-,N/A,,Mostly Cloudy,150,2013-04-19 10:43:00
6:58 AM,70.2,67.5,91,29.86,10.0,South,8.1,-,N/A,,Mostly Cloudy,170,2013-04-19 10:58:00
7:08 AM,69.8,68.0,94,29.86,10.0,South,6.9,-,N/A,,Mostly Cloudy,180,2013-04-19 11:08:00
7:13 AM,69.8,68.0,94,29.86,10.0,South,6.9,-,N/A,,Mostly Cloudy,170,2013-04-19 11:13:00
7:18 AM,69.8,68.0,94,29.87,10.0,South,6.9,-,N/A,,Mostly Cloudy,180,2013-04-19 11:18:00
7:43 AM,71.6,68.0,88,29.88,10.0,SSE,6.9,-,N/A,,Overcast,160,2013-04-19 11:43:00
7:48 AM,71.6,68.0,88,29.87,10.0,SSE,6.9,-,N/A,,Overcast,160,2013-04-19 11:48:00
7:58 AM,71.2,68.2,90,29.88,10.0,SSE,9.2,-,N/A,,Overcast,150,2013-04-19 11:58:00
8:03 AM,71.6,68.0,88,29.87,10.0,SSE,8.1,-,N/A,,Overcast,160,2013-04-19 12:03:00
8:28 AM,71.6,68.0,88,29.87,10.0,South,11.5,-,N/A,,Mostly Cloudy,170,2013-04-19 12:28:00
8:53 AM,73.4,69.8,88,29.86,10.0,South,9.2,-,N/A,,Mostly Cloudy,170,2013-04-19 12:53:00
8:58 AM,72.9,69.3,88,29.86,10.0,South,9.2,-,N/A,,Mostly Cloudy,180,2013-04-19 12:58:00
9:00 AM,73.4,69.8,88,29.86,10.0,South,8.1,-,N/A,,Light Drizzle,180,2013-04-19 13:00:00
9:05 AM,73.4,69.8,88,29.86,10.0,South,9.2,-,N/A,Rain,Light Rain,170,2013-04-19 13:05:00
9:10 AM,73.4,69.8,88,29.86,10.0,South,9.2,-,N/A,Rain,Light Rain,180,2013-04-19 13:10:00
9:11 AM,73.4,69.8,88,29.86,10.0,South,9.2,-,N/A,,Mostly Cloudy,180,2013-04-19 13:11:00
9:16 AM,73.4,69.8,88,29.85,10.0,South,10.4,-,N/A,,Mostly Cloudy,180,2013-04-19 13:16:00
9:26 AM,73.4,69.8,88,29.84,10.0,SSE,12.7,-,N/A,,Overcast,160,2013-04-19 13:26:00
9:31 AM,73.4,69.8,88,29.85,10.0,SSE,11.5,-,N/A,,Overcast,160,2013-04-19 13:31:00
9:36 AM,73.4,69.8,88,29.84,10.0,SSE,13.8,-,N/A,,Overcast,160,2013-04-19 13:36:00
9:41 AM,73.4,69.8,88,29.85,10.0,South,13.8,-,N/A,,Mostly Cloudy,170,2013-04-19 13:41:00
9:46 AM,73.4,69.8,88,29.85,10.0,South,12.7,-,N/A,,Mostly Cloudy,180,2013-04-19 13:46:00
9:51 AM,73.4,69.8,88,29.85,10.0,South,12.7,-,N/A,,Mostly Cloudy,170,2013-04-19 13:51:00
9:58 AM,73.2,69.6,88,29.85,10.0,South,13.8,19.6,0.00,,Mostly Cloudy,170,2013-04-19 13:58:00
10:23 AM,73.4,69.8,88,29.85,10.0,South,12.7,-,N/A,,Mostly Cloudy,180,2013-04-19 14:23:00
10:58 AM,74.1,68.9,84,29.84,10.0,South,13.8,-,N/A,,Mostly Cloudy,170,2013-04-19 14:58:00
11:01 AM,73.4,69.8,88,29.84,10.0,South,12.7,-,N/A,Rain,Light Rain,170,2013-04-19 15:01:00
11:16 AM,73.4,69.8,88,29.83,10.0,South,15.0,-,N/A,Rain,Light Rain,170,2013-04-19 15:16:00
11:26 AM,73.4,69.8,88,29.83,10.0,WSW,18.4,31.1,N/A,Rain,Light Rain,250,2013-04-19 15:26:00
11:27 AM,73.4,69.8,88,29.83,10.0,West,24.2,33.4,N/A,,Mostly Cloudy,280,2013-04-19 15:27:00
11:28 AM,73.4,69.8,88,29.84,9.0,WNW,26.5,34.5,N/A,,Mostly Cloudy,290,2013-04-19 15:28:00
11:29 AM,73.4,68.0,83,29.88,1.5,West,23.0,34.5,N/A,Rain,Light Rain,280,2013-04-19 15:29:00
11:32 AM,69.8,62.6,78,29.90,0.8,WNW,27.6,36.8,N/A,Rain,Light Rain,300,2013-04-19 15:32:00
11:37 AM,62.6,59.0,88,29.91,0.5,WNW,19.6,36.8,N/A,Fog-Rain,Heavy Rain,300,2013-04-19 15:37:00
11:39 AM,60.8,57.2,88,29.92,0.5,NW,19.6,36.8,N/A,Fog-Rain,Heavy Rain,310,2013-04-19 15:39:00
11:44 AM,59.0,55.4,88,29.92,1.5,WNW,16.1,28.8,N/A,Rain,Heavy Rain,300,2013-04-19 15:44:00
11:49 AM,57.2,55.4,94,29.92,7.0,NW,16.1,28.8,N/A,Rain,Rain,310,2013-04-19 15:49:00
11:54 AM,57.2,55.4,94,29.92,9.0,WNW,13.8,24.2,N/A,Rain,Rain,300,2013-04-19 15:54:00
11:58 AM,57.0,55.2,94,29.92,9.0,WNW,12.7,19.6,0.57,Rain,Rain,290,2013-04-19 15:58:00
12:03 PM,57.2,55.4,94,29.92,9.0,WNW,10.4,19.6,N/A,Rain,Rain,300,2013-04-19 16:03:00
12:28 PM,55.4,53.6,94,29.95,10.0,WNW,20.7,27.6,N/A,Rain,Light Rain,300,2013-04-19 16:28:00
12:45 PM,55.4,51.8,88,29.94,10.0,WNW,11.5,24.2,N/A,,Mostly Cloudy,290,2013-04-19 16:45:00
12:50 PM,55.4,51.8,88,29.95,10.0,WNW,16.1,24.2,N/A,,Light Drizzle,290,2013-04-19 16:50:00
12:55 PM,53.6,51.8,94,29.95,10.0,West,12.7,24.2,N/A,Rain,Light Rain,280,2013-04-19 16:55:00
12:58 PM,54.5,51.8,91,29.95,10.0,WNW,11.5,24.2,0.06,Rain,Rain,290,2013-04-19 16:58:00
1:28 PM,53.6,51.8,94,29.95,10.0,WNW,8.1,17.3,N/A,Rain,Light Rain,300,2013-04-19 17:28:00
1:35 PM,53.6,51.8,94,29.94,10.0,West,8.1,-,N/A,,Overcast,280,2013-04-19 17:35:00
1:55 PM,53.6,51.8,94,29.94,10.0,West,6.9,-,N/A,,Mostly Cloudy,280,2013-04-19 17:55:00
1:58 PM,54.3,52.0,92,29.95,10.0,West,6.9,-,0.02,,Mostly Cloudy,270,2013-04-19 17:58:00
2:03 PM,53.6,51.8,94,29.95,10.0,West,9.2,-,N/A,,Mostly Cloudy,260,2013-04-19 18:03:00
2:13 PM,55.4,51.8,88,29.94,10.0,West,8.1,-,N/A,,Mostly Cloudy,280,2013-04-19 18:13:00
2:32 PM,55.4,51.8,88,29.94,10.0,West,5.8,-,N/A,Rain,Light Rain,270,2013-04-19 18:32:00
2:37 PM,55.4,51.8,88,29.94,10.0,WNW,8.1,-,N/A,Rain,Light Rain,290,2013-04-19 18:37:00
2:42 PM,55.4,51.8,88,29.94,10.0,WNW,5.8,-,N/A,Rain,Light Rain,290,2013-04-19 18:42:00
2:49 PM,55.4,51.8,88,29.95,10.0,West,8.1,-,N/A,,Overcast,260,2013-04-19 18:49:00
2:56 PM,55.4,50.0,82,29.96,10.0,West,5.8,-,N/A,,Light Drizzle,270,2013-04-19 18:56:00
2:58 PM,55.4,50.0,82,29.96,10.0,West,6.9,-,0.00,,Light Drizzle,270,2013-04-19 18:58:00
3:03 PM,55.4,50.0,82,29.96,10.0,West,10.4,-,N/A,,Light Drizzle,260,2013-04-19 19:03:00
3:09 PM,55.4,50.0,82,29.96,10.0,West,8.1,-,N/A,,Overcast,280,2013-04-19 19:09:00
3:18 PM,55.4,50.0,82,29.98,10.0,West,15.0,-,N/A,Rain,Light Rain,280,2013-04-19 19:18:00
3:53 PM,50.0,48.2,94,29.98,10.0,West,8.1,-,N/A,Rain,Rain,270,2013-04-19 19:53:00
3:58 PM,50.5,47.8,90,30.00,10.0,West,6.9,-,0.05,Rain,Light Rain,270,2013-04-19 19:58:00
4:13 PM,50.0,48.2,94,29.99,10.0,WNW,8.1,-,N/A,Rain,Light Rain,300,2013-04-19 20:13:00
4:18 PM,50.0,48.2,94,29.98,8.0,WNW,9.2,-,N/A,Rain,Light Rain,290,2013-04-19 20:18:00
4:28 PM,50.0,48.2,94,29.98,10.0,West,8.1,-,N/A,Rain,Light Rain,280,2013-04-19 20:28:00
4:48 PM,50.0,48.2,94,29.99,10.0,West,6.9,-,N/A,,Light Drizzle,280,2013-04-19 20:48:00
4:58 PM,50.0,50.0,100,29.99,10.0,West,6.9,-,0.03,Rain,Light Rain,280,2013-04-19 20:58:00
5:53 PM,50.0,48.2,94,29.95,10.0,NW,4.6,-,N/A,Rain,Light Rain,310,2013-04-19 21:53:00
5:58 PM,50.4,48.6,94,29.97,10.0,West,5.8,-,0.02,Rain,Light Rain,270,2013-04-19 21:58:00
6:08 PM,50.0,48.2,94,29.97,10.0,West,4.6,-,N/A,Rain,Light Rain,280,2013-04-19 22:08:00
6:13 PM,50.0,48.2,94,29.97,10.0,WNW,8.1,-,N/A,Rain,Light Rain,290,2013-04-19 22:13:00
6:26 PM,50.0,48.2,94,29.97,10.0,WNW,6.9,-,N/A,,Mostly Cloudy,290,2013-04-19 22:26:00
6:38 PM,50.0,48.2,94,29.96,10.0,WNW,6.9,-,N/A,Rain,Light Rain,300,2013-04-19 22:38:00
6:58 PM,50.4,48.0,92,30.02,10.0,West,9.2,-,0.02,,Light Drizzle,280,2013-04-19 22:58:00
7:13 PM,50.0,46.4,87,29.99,10.0,WNW,4.6,-,N/A,,Overcast,290,2013-04-19 23:13:00
7:25 PM,50.0,48.2,94,29.98,10.0,West,4.6,-,N/A,Rain,Light Rain,280,2013-04-19 23:25:00
7:54 PM,50.0,46.4,87,30.00,10.0,West,5.8,-,N/A,,Scattered Clouds,280,2013-04-19 23:54:00
7:58 PM,49.5,46.9,91,30.01,10.0,West,4.6,-,0.00,,Partly Cloudy,280,2013-04-19 23:58:00
8:58 PM,49.1,47.1,93,30.04,10.0,West,5.8,-,N/A,,Mostly Cloudy,280,2013-04-20 00:58:00
9:58 PM,48.6,47.3,95,30.07,10.0,West,5.8,-,N/A,,Partly Cloudy,270,2013-04-20 01:58:00
10:58 PM,48.2,46.2,93,30.10,10.0,West,6.9,-,N/A,,Clear,280,2013-04-20 02:58:00
11:58 PM,47.1,45.7,95,30.11,10.0,WNW,4.6,-,N/A,,Clear,290,2013-04-20 03:58:00